Home > Weather > Drøbak > Past weeks

Flag for Norway Weather for the Past 2 Weeks in Drøbak, Norway

Now
39 °F

Scattered clouds.


Feels Like: 28 °F
Forecast: 19 / 26 °F
Wind: 25 mph from Northeast

Location: Statfjord B

Current Time: Feb 12, 2016 at 11:35:36 AM

Latest Report: Feb 12, 2016 at 10:50 AM


Visibility: N/A

Pressure: 29.77 "Hg

Humidity: 56%

Dew point: 25 °F

Location of DrøbakLocation

Historic Weather in Drøbak — Graph

°F

Drøbak Temperature Yesterday

Maximum temperature yesterday: 41 °F (at 12:20 AM)
Minimum temperature yesterday: 36 °F (at 6:50 AM)
Average temperature yesterday: 40 °F

High & Low Weather Summary for the Past Weeks

 TemperatureHumidityPressure
High48 °F (Jan 29, 11:50 AM)100% (Jan 29, 7:50 AM)29.98 "Hg (Jan 29, 7:50 AM)
Low34 °F (Jan 31, 7:50 AM)45% (Feb 4, 11:50 AM)28.26 "Hg (Jan 29, 3:50 PM)
Average42 °F77%29.13 "Hg
* Reported Jan 28 10:20 AM — Feb 12 10:20 AM, Drøbak, Weather by CustomWeather, © 2016

Note: Actual official high and low records may vary slightly from our data, if they occured in-between our weather recording intervals... More about our weather records

Advertising

Drøbak Weather History for the Previous 24 Hours

 ConditionsComfort  
Time TempWeatherWind HumidityBarometerVisibility
10:20 AM
Fri, Feb 12
39 °FPassing clouds.25 mph56%29.77 "HgN/A
9:50 AM39 °FPartly sunny.23 mph61%29.77 "HgN/A
9:20 AM39 °FScattered clouds.25 mph52%29.77 "HgN/A
8:50 AM39 °FPartly sunny.25 mph56%29.77 "HgN/A
8:20 AM39 °FPartly sunny.26 mph52%29.77 "HgN/A
7:50 AM39 °FPassing clouds.29 mph52%29.77 "HgN/A
7:20 AM39 °FPassing clouds.29 mph52%29.77 "HgN/A
6:50 AM39 °FPassing clouds.30 mph52%29.77 "HgN/A
6:20 AM39 °FPassing clouds.28 mph48%29.77 "HgN/A
5:50 AM39 °FPassing clouds.28 mph52%29.77 "HgN/A
5:20 AM39 °FPassing clouds.28 mph52%29.77 "HgN/A
4:50 AM39 °FPassing clouds.28 mph52%29.77 "HgN/A
4:20 AM39 °FPassing clouds.28 mph56%29.77 "HgN/A
3:50 AM39 °FPassing clouds.28 mph48%29.77 "HgN/A
3:20 AM39 °FPassing clouds.28 mph52%29.77 "HgN/A
2:50 AM39 °FPassing clouds.29 mph52%29.77 "HgN/A
2:20 AM39 °FPassing clouds.31 mph61%29.77 "HgN/A
1:50 AM39 °FPassing clouds.30 mph56%29.77 "HgN/A
1:20 AM39 °FPassing clouds.28 mph61%29.77 "HgN/A
12:50 AM39 °FPassing clouds.29 mph56%29.77 "HgN/A
12:20 AM39 °FPassing clouds.29 mph56%29.77 "HgN/A
11:50 PM
Thu, Feb 11
39 °FPassing clouds.29 mph56%29.77 "HgN/A
10:20 PM39 °FPassing clouds.31 mph56%29.74 "HgN/A
9:50 PM39 °FPassing clouds.31 mph61%29.74 "HgN/A
9:20 PM39 °FPassing clouds.32 mph61%29.74 "HgN/A
8:50 PM39 °FPassing clouds.30 mph61%29.74 "HgN/A
8:20 PM39 °FPassing clouds.33 mph65%29.74 "HgN/A
7:50 PM39 °FPassing clouds.33 mph70%29.74 "HgN/A
7:20 PM39 °FPassing clouds.31 mph65%29.74 "HgN/A
6:50 PM39 °FPassing clouds.33 mph65%29.74 "HgN/A
6:20 PM39 °FPassing clouds.32 mph65%29.71 "HgN/A
5:50 PM39 °FPassing clouds.33 mph65%29.71 "HgN/A
5:20 PM39 °FPassing clouds.33 mph65%29.71 "HgN/A
4:50 PM39 °FScattered clouds.33 mph65%29.71 "HgN/A
4:20 PM39 °FScattered clouds.36 mph61%29.68 "HgN/A
3:50 PM39 °FPassing clouds.36 mph61%29.68 "HgN/A
3:20 PM39 °FChilly.41 mph56%29.68 "HgN/A
2:50 PM39 °FPassing clouds.40 mph61%29.68 "HgN/A
2:20 PM41 °FPassing clouds.40 mph53%29.65 "HgN/A
1:50 PM39 °FChilly.41 mph56%29.65 "HgN/A
1:20 PM39 °FScattered clouds.41 mph61%29.65 "HgN/A
12:50 PM41 °FPassing clouds.38 mph61%29.65 "HgN/A
12:20 PM41 °FPassing clouds.41 mph49%29.65 "HgN/A
11:50 AM41 °FScattered clouds.41 mph49%29.62 "HgN/A
11:20 AM41 °FPartly sunny.44 mph57%29.62 "HgN/A
Weather by CustomWeather, © 2016

See weather overviewHow to use our weather pages